• In Czech Republic
  • List of Countries
  • For 7 days
  • Water Temperature
  • Satellite Maps
  • Weather Map
  • Weather Widgets
  • user-avatar
    Login

    Hourly Weather Antequera

    Today, 20 June, Wednesday

    Time Temperature Precipitation Wind Pressure Humidity
    00:00 +20°C° 0 mm 2 mps 718 mmHg 65%
    01:00 +20°C° 0 mm 2 mps 718 mmHg 67%
    02:00 +20°C° 0 mm 2 mps 718 mmHg 68%
    03:00 +19°C° 0 mm 2 mps 717 mmHg 70%
    04:00 +19°C° 0 mm 2 mps 718 mmHg 69%
    05:00 +19°C° 0 mm 2 mps 718 mmHg 69%
    06:00 +20°C° 0 mm 2 mps 718 mmHg 68%
    07:00 +23°C° 0 mm 2 mps 718 mmHg 60%
    08:00 +25°C° 0 mm 2 mps 718 mmHg 51%
    09:00 +27°C° 0 mm 2 mps 719 mmHg 42%
    10:00 +28°C° 0 mm 2 mps 719 mmHg 39%
    11:00 +29°C° 0 mm 2 mps 718 mmHg 35%
    12:00 +31°C° 0 mm 3 mps 718 mmHg 32%
    13:00 +31°C° 0 mm 3 mps 718 mmHg 31%
    14:00 +33°C° 0 mm 3 mps 718 mmHg 31%
    15:00 +33°C° 0 mm 3 mps 717 mmHg 30%
    16:00 +31°C° 0.1 mm 3 mps 717 mmHg 33%
    17:00 +30°C° 0.1 mm 3 mps 717 mmHg 36%
    18:00 +29°C° 0.1 mm 3 mps 717 mmHg 38%
    19:00 +28°C° 0 mm 2 mps 717 mmHg 44%
    20:00 +26°C° 0 mm 2 mps 717 mmHg 50%
    21:00 +24°C° 0 mm 2 mps 717 mmHg 56%
    22:00 +23°C° 0 mm 2 mps 717 mmHg 59%
    23:00 +23°C° 0 mm 2 mps 718 mmHg 61%

    Tomorrow, 21 June, Thursday

    Time Temperature Precipitation Wind Pressure Humidity
    00:00 +21°C° 0 mm 2 mps 718 mmHg 64%
    01:00 +21°C° 0 mm 2 mps 718 mmHg 64%
    02:00 +21°C° 0 mm 1 mps 717 mmHg 64%
    03:00 +21°C° 0 mm 1 mps 717 mmHg 64%
    04:00 +21°C° 0 mm 1 mps 717 mmHg 63%
    05:00 +21°C° 0 mm 1 mps 717 mmHg 62%
    06:00 +21°C° 0 mm 1 mps 717 mmHg 60%
    07:00 +23°C° 0 mm 1 mps 718 mmHg 54%
    08:00 +25°C° 0 mm 1 mps 718 mmHg 47%
    09:00 +27°C° 0 mm 1 mps 718 mmHg 41%
    10:00 +28°C° 0 mm 2 mps 718 mmHg 38%
    11:00 +30°C° 0 mm 2 mps 718 mmHg 35%
    12:00 +31°C° 0 mm 2 mps 718 mmHg 32%
    13:00 +31°C° 0 mm 2 mps 718 mmHg 31%
    14:00 +32°C° 0 mm 2 mps 718 mmHg 31%
    15:00 +33°C° 0 mm 3 mps 717 mmHg 30%
    16:00 +31°C° 0.1 mm 3 mps 717 mmHg 32%
    17:00 +30°C° 0.1 mm 3 mps 717 mmHg 34%
    18:00 +30°C° 0.1 mm 3 mps 717 mmHg 36%
    19:00 +28°C° 0.1 mm 2 mps 717 mmHg 41%
    20:00 +26°C° 0.1 mm 2 mps 717 mmHg 47%
    21:00 +24°C° 0.1 mm 2 mps 717 mmHg 52%
    22:00 +24°C° 0 mm 2 mps 717 mmHg 53%
    23:00 +23°C° 0 mm 2 mps 717 mmHg 54%

    Day after tomorrow, 22 June, Friday

    Time Temperature Precipitation Wind Pressure Humidity
    00:00 +23°C° 0 mm 1 mps 717 mmHg 55%
    01:00 +22°C° 0 mm 1 mps 717 mmHg 56%
    02:00 +22°C° 0 mm 1 mps 717 mmHg 56%
    03:00 +22°C° 0 mm 1 mps 717 mmHg 57%
    04:00 +22°C° 0 mm 1 mps 717 mmHg 57%
    05:00 +22°C° 0 mm 1 mps 717 mmHg 57%
    06:00 +22°C° 0 mm 1 mps 717 mmHg 57%
    07:00 +24°C° 0 mm 1 mps 717 mmHg 51%
    08:00 +26°C° 0 mm 1 mps 717 mmHg 45%
    09:00 +28°C° 0 mm 1 mps 717 mmHg 40%
    10:00 +29°C° 0 mm 2 mps 718 mmHg 36%
    11:00 +30°C° 0 mm 2 mps 718 mmHg 33%
    12:00 +32°C° 0 mm 2 mps 718 mmHg 29%
    13:00 +32°C° 0 mm 2 mps 717 mmHg 29%
    14:00 +32°C° 0 mm 2 mps 717 mmHg 28%
    15:00 +34°C° 0 mm 3 mps 717 mmHg 27%
    16:00 +32°C° 0 mm 2 mps 717 mmHg 28%
    17:00 +32°C° 0 mm 2 mps 716 mmHg 30%
    18:00 +31°C° 0 mm 2 mps 716 mmHg 31%
    19:00 +29°C° 0 mm 2 mps 716 mmHg 36%
    20:00 +27°C° 0 mm 2 mps 717 mmHg 41%
    21:00 +25°C° 0 mm 2 mps 717 mmHg 47%
    22:00 +25°C° 0 mm 2 mps 717 mmHg 48%
    23:00 +24°C° 0 mm 2 mps 717 mmHg 50%

    23 June, Saturday

    Time Temperature Precipitation Wind Pressure Humidity
    00:00 +23°C° 0 mm 1 mps 717 mmHg 51%
    01:00 +23°C° 0 mm 1 mps 717 mmHg 52%
    02:00 +23°C° 0 mm 1 mps 717 mmHg 52%
    03:00 +22°C° 0 mm 1 mps 716 mmHg 52%
    04:00 +20°C° 0 mm 0 mps 716 mmHg 53%
    05:00 +21°C° 0 mm 0 mps 716 mmHg 53%
    06:00 +21°C° 0 mm 0 mps 717 mmHg 53%
    07:00 +25°C° 0 mm 1 mps 717 mmHg 48%
    08:00 +27°C° 0 mm 1 mps 717 mmHg 43%
    09:00 +28°C° 0 mm 1 mps 717 mmHg 38%
    10:00 +30°C° 0 mm 2 mps 717 mmHg 34%
    11:00 +31°C° 0 mm 2 mps 717 mmHg 30%
    12:00 +34°C° 0 mm 2 mps 717 mmHg 26%
    13:00 +34°C° 0 mm 2 mps 717 mmHg 25%
    14:00 +35°C° 0 mm 2 mps 716 mmHg 25%
    15:00 +36°C° 0 mm 3 mps 716 mmHg 24%
    16:00 +35°C° 0 mm 2 mps 716 mmHg 26%
    17:00 +34°C° 0 mm 2 mps 716 mmHg 28%
    18:00 +32°C° 0 mm 2 mps 715 mmHg 30%
    19:00 +30°C° 0 mm 2 mps 716 mmHg 35%
    20:00 +28°C° 0 mm 2 mps 716 mmHg 40%
    21:00 +26°C° 0 mm 2 mps 716 mmHg 45%
    22:00 +26°C° 0 mm 2 mps 716 mmHg 47%
    23:00 +25°C° 0 mm 2 mps 716 mmHg 48%

    24 June, Sunday

    Time Temperature Precipitation Wind Pressure Humidity
    00:00 +24°C° 0 mm 1 mps 716 mmHg 50%
    01:00 +24°C° 0 mm 1 mps 716 mmHg 52%
    02:00 +23°C° 0 mm 1 mps 716 mmHg 54%
    03:00 +23°C° 0 mm 1 mps 715 mmHg 56%
    04:00 +23°C° 0 mm 1 mps 716 mmHg 57%
    05:00 +23°C° 0 mm 1 mps 716 mmHg 58%
    06:00 +23°C° 0 mm 1 mps 716 mmHg 59%
    07:00 +25°C° 0 mm 1 mps 716 mmHg 53%
    08:00 +27°C° 0 mm 1 mps 717 mmHg 47%
    09:00 +28°C° 0 mm 2 mps 717 mmHg 41%
    10:00 +30°C° 0 mm 2 mps 717 mmHg 38%
    11:00 +31°C° 0 mm 2 mps 717 mmHg 35%
    12:00 +33°C° 0 mm 3 mps 717 mmHg 31%
    13:00 +34°C° 0 mm 3 mps 717 mmHg 30%
    14:00 +34°C° 0 mm 3 mps 717 mmHg 30%
    15:00 +35°C° 0 mm 3 mps 717 mmHg 29%
    16:00 +34°C° 0 mm 3 mps 717 mmHg 31%
    17:00 +33°C° 0 mm 3 mps 716 mmHg 34%
    18:00 +32°C° 0 mm 4 mps 716 mmHg 36%
    19:00 +30°C° 0 mm 3 mps 717 mmHg 42%
    20:00 +28°C° 0 mm 2 mps 717 mmHg 48%
    21:00 +26°C° 0 mm 2 mps 717 mmHg 54%
    22:00 +25°C° 0 mm 2 mps 717 mmHg 56%
    23:00 +24°C° 0 mm 1 mps 717 mmHg 58%

    25 June, Monday

    Time Temperature Precipitation Wind Pressure Humidity
    00:00 +24°C° 0 mm 1 mps 717 mmHg 60%
    01:00 +23°C° 0 mm 1 mps 717 mmHg 62%
    02:00 +23°C° 0 mm 1 mps 717 mmHg 63%
    03:00 +22°C° 0 mm 1 mps 717 mmHg 65%
    04:00 +22°C° 0 mm 1 mps 717 mmHg 66%
    05:00 +22°C° 0 mm 1 mps 717 mmHg 66%
    06:00 +22°C° 0 mm 1 mps 717 mmHg 67%
    07:00 +24°C° 0 mm 1 mps 717 mmHg 60%
    08:00 +26°C° 0 mm 2 mps 717 mmHg 53%
    09:00 +28°C° 0 mm 2 mps 717 mmHg 47%
    10:00 +29°C° 0 mm 2 mps 717 mmHg 42%
    11:00 +30°C° 0 mm 3 mps 718 mmHg 38%
    12:00 +33°C° 0 mm 3 mps 718 mmHg 34%
    13:00 +33°C° 0 mm 3 mps 717 mmHg 32%
    14:00 +34°C° 0 mm 4 mps 717 mmHg 30%
    15:00 +34°C° 0 mm 4 mps 717 mmHg 29%
    16:00 +34°C° 0 mm 4 mps 717 mmHg 29%
    17:00 +33°C° 0 mm 4 mps 717 mmHg 29%
    18:00 +32°C° 0 mm 4 mps 717 mmHg 30%
    19:00 +30°C° 0 mm 3 mps 717 mmHg 31%
    20:00 +28°C° 0 mm 2 mps 717 mmHg 33%
    21:00 +26°C° 0 mm 2 mps 718 mmHg 35%
    22:00 +25°C° 0 mm 2 mps 718 mmHg 36%
    23:00 +25°C° 0 mm 1 mps 718 mmHg 37%
    Show more